Weather History for Ely, MN

Change the Weather History Date:

Sunday, April 27, 2014

  Actual Average Record
Temperature  
Mean Temperature 34 °F -  
Max Temperature 41 °F 55 °F 75 °F (2007)
Min Temperature 28 °F 29 °F 1 °F (1998)
Degree Days  
Heating Degree Days 30    
Moisture  
Dew Point 17 °F    
Average Humidity 48    
Maximum Humidity 64    
Minimum Humidity 33    
Precipitation  
Precipitation 0.00 in - - ()
Sea Level Pressure  
Sea Level Pressure 30.06 in    
Wind  
Wind Speed 10 mph (East)    
Max Wind Speed 21 mph    
Max Gust Speed 31 mph    
Visibility 10 miles    
Events Rain    
Averages and records for this station are not official NWS values.
T = Trace of Precipitation, MM = Missing Value Source: NWS Daily Summary

Daily Weather History Graph

Daily Weather History Graph

Search for Another Location

Airport:

Trip Planner

Search our weather history database for the weather conditions in past years. The results will help you decide how hot, cold, wet, or windy it might be!

Date:

Astronomy

Apr. 27, 2014 Rise Set
Actual Time 5:56 AM CDT 8:14 PM CDT
Civil Twilight 5:22 AM CDT 8:48 PM CDT
Nautical Twilight 4:39 AM CDT 9:31 PM CDT
Astronomical Twilight 3:51 AM CDT 10:19 PM CDT
Moon 5:05 AM CDT (4/27) 6:42 PM CDT (4/27)
Length of Visible Light 15h 26m
Length of Day
14h 18m
Waning Crescent, 3% of the Moon is Illuminated
Apr 27
Waning Crescent
Apr 29
New
May 6
First Quarter
May 14
Full
May 21
Last Quarter

Hourly Weather History & Observations

Time (CDT) Temp. Windchill Dew Point Humidity Pressure Visibility Wind Dir Wind Speed Gust Speed Precip Events Conditions
12:13 AM 30.2 °F - 19.4 °F 64% 30.15 in 10.0 mi Calm Calm - N/A   Clear
12:33 AM 30.2 °F - 19.4 °F 64% 30.16 in 10.0 mi Calm Calm - N/A   Clear
12:53 AM 30.2 °F 25.4 °F 17.6 °F 60% 30.15 in 10.0 mi East 4.6 mph - N/A   Clear
1:13 AM 28.4 °F 23.3 °F 17.6 °F 64% 30.14 in 10.0 mi ENE 4.6 mph - N/A   Clear
1:33 AM 28.4 °F 22.2 °F 17.6 °F 64% 30.12 in 10.0 mi NE 5.8 mph - N/A   Clear
1:52 AM 28.4 °F 23.3 °F 15.8 °F 59% 30.12 in 10.0 mi ENE 4.6 mph - N/A   Clear
2:13 AM 28.4 °F 22.2 °F 15.8 °F 59% 30.12 in 10.0 mi East 5.8 mph - N/A   Clear
2:32 AM 28.4 °F 22.2 °F 15.8 °F 59% 30.11 in 10.0 mi East 5.8 mph - N/A   Clear
2:53 AM 28.4 °F 21.2 °F 15.8 °F 59% 30.09 in 10.0 mi ENE 6.9 mph - N/A   Clear
3:13 AM 30.2 °F 23.4 °F 15.8 °F 55% 30.08 in 10.0 mi East 6.9 mph - N/A   Clear
3:32 AM 30.2 °F 21.3 °F 15.8 °F 55% 30.08 in 10.0 mi ENE 10.4 mph 16.1 mph N/A   Clear
3:53 AM 30.2 °F 22.6 °F 14.0 °F 51% 30.07 in 10.0 mi East 8.1 mph - N/A   Clear
4:13 AM 30.2 °F 22.6 °F 12.2 °F 47% 30.06 in 10.0 mi East 8.1 mph - N/A   Clear
4:32 AM 30.2 °F 23.4 °F 12.2 °F 47% 30.06 in 10.0 mi East 6.9 mph - N/A   Clear
4:53 AM 30.2 °F 22.6 °F 14.0 °F 51% 30.07 in 10.0 mi East 8.1 mph - N/A   Clear
5:13 AM 30.2 °F 22.6 °F 14.0 °F 51% 30.06 in 10.0 mi ESE 8.1 mph - N/A   Clear
5:33 AM 30.2 °F 22.6 °F 15.8 °F 55% 30.06 in 10.0 mi East 8.1 mph - N/A   Clear
5:53 AM 30.2 °F 22.6 °F 15.8 °F 55% 30.06 in 10.0 mi East 8.1 mph - N/A   Clear
6:13 AM 30.2 °F 22.6 °F 15.8 °F 55% 30.06 in 10.0 mi East 8.1 mph - N/A   Clear
6:33 AM 30.2 °F 22.6 °F 15.8 °F 55% 30.07 in 10.0 mi ESE 8.1 mph - N/A   Clear
6:53 AM 30.2 °F 19.8 °F 15.8 °F 55% 30.07 in 10.0 mi ESE 13.8 mph 18.4 mph N/A   Clear
7:13 AM 32.0 °F 22.1 °F 15.8 °F 51% 30.09 in 10.0 mi ESE 13.8 mph 20.7 mph N/A   Clear
7:33 AM 32.0 °F 22.5 °F 15.8 °F 51% 30.10 in 10.0 mi ESE 12.7 mph 18.4 mph N/A   Clear
7:53 AM 33.8 °F 24.3 °F 17.6 °F 52% 30.10 in 10.0 mi ESE 13.8 mph 20.7 mph N/A   Clear
8:13 AM 33.8 °F 23.9 °F 17.6 °F 52% 30.10 in 10.0 mi ESE 15.0 mph 20.7 mph N/A   Clear
8:33 AM 35.6 °F 27.1 °F 19.4 °F 52% 30.09 in 10.0 mi East 12.7 mph 21.9 mph N/A   Clear
8:53 AM 35.6 °F 25.5 °F 19.4 °F 52% 30.09 in 10.0 mi ESE 17.3 mph 25.3 mph N/A   Clear
9:13 AM 35.6 °F 26.6 °F 19.4 °F 52% 30.09 in 10.0 mi East 13.8 mph 28.8 mph N/A   Scattered Clouds
9:33 AM 35.6 °F 26.2 °F 19.4 °F 52% 30.09 in 10.0 mi ESE 15.0 mph 20.7 mph N/A   Mostly Cloudy
9:52 AM 37.4 °F 30.3 °F 19.4 °F 48% 30.08 in 10.0 mi ESE 10.4 mph 23.0 mph N/A   Overcast
10:13 AM 37.4 °F 27.8 °F 19.4 °F 48% 30.08 in 10.0 mi ESE 17.3 mph 23.0 mph N/A   Overcast
10:33 AM 37.4 °F 27.5 °F 19.4 °F 48% 30.08 in 10.0 mi ESE 18.4 mph 25.3 mph N/A   Overcast
10:52 AM 37.4 °F 30.3 °F 19.4 °F 48% 30.09 in 10.0 mi ESE 10.4 mph 20.7 mph N/A   Overcast
11:13 AM 37.4 °F 28.9 °F 19.4 °F 48% 30.09 in 10.0 mi ESE 13.8 mph 23.0 mph N/A   Overcast
11:32 AM 37.4 °F 28.2 °F 17.6 °F 45% 30.09 in 10.0 mi ESE 16.1 mph 25.3 mph N/A   Overcast
11:53 AM 37.4 °F 28.5 °F 17.6 °F 45% 30.08 in 10.0 mi East 15.0 mph 24.2 mph N/A   Overcast
12:13 PM 37.4 °F 28.9 °F 19.4 °F 48% 30.07 in 10.0 mi East 13.8 mph 20.7 mph N/A   Overcast
12:32 PM 37.4 °F 28.9 °F 19.4 °F 48% 30.07 in 10.0 mi East 13.8 mph 26.5 mph N/A   Overcast
12:53 PM 39.2 °F 29.6 °F 19.4 °F 45% 30.06 in 10.0 mi ESE 19.6 mph 31.1 mph N/A   Mostly Cloudy
1:11 PM 39.2 °F 31.2 °F 19.4 °F 45% 30.05 in 10.0 mi East 13.8 mph 31.1 mph N/A   Mostly Cloudy
1:33 PM 39.2 °F 31.6 °F 19.4 °F 45% 30.05 in 10.0 mi East 12.7 mph 26.5 mph N/A   Unknown
1:52 PM 39.2 °F 30.8 °F 19.4 °F 45% 30.05 in 10.0 mi East 15.0 mph 25.3 mph N/A   Overcast
2:13 PM 39.2 °F 31.2 °F 19.4 °F 45% 30.06 in 10.0 mi East 13.8 mph 28.8 mph N/A   Overcast
2:33 PM 39.2 °F 29.3 °F 19.4 °F 45% 30.06 in 10.0 mi East 20.7 mph 31.1 mph N/A   Overcast
2:52 PM 41.0 °F 32.5 °F 19.4 °F 42% 30.04 in 10.0 mi East 17.3 mph 23.0 mph N/A   Mostly Cloudy
3:13 PM 41.0 °F 31.6 °F 19.4 °F 42% 30.03 in 10.0 mi ESE 20.7 mph 27.6 mph N/A   Scattered Clouds
3:33 PM 41.0 °F 33.9 °F 19.4 °F 42% 30.03 in 10.0 mi East 12.7 mph 25.3 mph N/A   Mostly Cloudy
3:53 PM 39.2 °F 29.8 °F 17.6 °F 42% 30.03 in 10.0 mi East 18.4 mph 28.8 mph N/A   Overcast
4:12 PM 39.2 °F 29.3 °F 15.8 °F 39% 30.02 in 10.0 mi East 20.7 mph 29.9 mph N/A   Overcast
4:33 PM 39.2 °F 29.3 °F 15.8 °F 39% 30.01 in 10.0 mi ESE 20.7 mph 29.9 mph N/A   Scattered Clouds
4:53 PM 41.0 °F 31.9 °F 15.8 °F 36% 30.01 in 10.0 mi East 19.6 mph 27.6 mph N/A   Clear
5:12 PM 39.2 °F 31.2 °F 15.8 °F 39% 30.01 in 10.0 mi East 13.8 mph 26.5 mph N/A   Scattered Clouds
5:33 PM 39.2 °F 29.8 °F 14.0 °F 36% 30.00 in 10.0 mi East 18.4 mph 31.1 mph N/A   Scattered Clouds
5:53 PM 39.2 °F 30.5 °F 14.0 °F 36% 30.01 in 10.0 mi East 16.1 mph 26.5 mph N/A   Scattered Clouds
6:12 PM 39.2 °F 30.2 °F 14.0 °F 36% 30.00 in 10.0 mi East 17.3 mph 26.5 mph N/A   Scattered Clouds
6:33 PM 39.2 °F 31.2 °F 12.2 °F 33% 30.01 in 10.0 mi East 13.8 mph 28.8 mph N/A   Mostly Cloudy
6:53 PM 39.2 °F 31.2 °F 12.2 °F 33% 30.01 in 10.0 mi East 13.8 mph 21.9 mph N/A   Overcast
7:12 PM 39.2 °F 30.5 °F 14.0 °F 36% 30.02 in 10.0 mi East 16.1 mph 19.6 mph N/A   Mostly Cloudy
7:33 PM 37.4 °F 27.8 °F 15.8 °F 41% 30.03 in 10.0 mi ESE 17.3 mph 24.2 mph N/A   Overcast
7:53 PM 37.4 °F 27.8 °F 15.8 °F 41% 30.02 in 10.0 mi East 17.3 mph 26.5 mph N/A   Overcast
8:12 PM 37.4 °F 27.5 °F 15.8 °F 41% 30.03 in 10.0 mi East 18.4 mph 26.5 mph N/A   Overcast
8:33 PM 37.4 °F 29.8 °F 17.6 °F 45% 30.02 in 10.0 mi East 11.5 mph 23.0 mph N/A   Mostly Cloudy
8:53 PM 37.4 °F 28.2 °F 17.6 °F 45% 30.03 in 10.0 mi East 16.1 mph 25.3 mph N/A   Overcast
9:12 PM 37.4 °F 28.9 °F 17.6 °F 45% 30.04 in 10.0 mi East 13.8 mph 21.9 mph N/A   Overcast
9:33 PM 37.4 °F 28.5 °F 17.6 °F 45% 30.04 in 10.0 mi East 15.0 mph 23.0 mph N/A   Overcast
9:53 PM 39.2 °F 30.2 °F 21.2 °F 49% 30.03 in 10.0 mi ESE 17.3 mph 25.3 mph N/A   Drizzle
10:12 PM 37.4 °F 28.5 °F 24.8 °F 60% 30.02 in 10.0 mi East 15.0 mph 27.6 mph N/A Rain Light Rain
10:33 PM 37.4 °F 29.3 °F 21.2 °F 52% 30.02 in 10.0 mi East 12.7 mph 19.6 mph N/A   Overcast
10:53 PM 39.2 °F 29.6 °F 19.4 °F 45% 30.00 in 10.0 mi East 19.6 mph 25.3 mph N/A   Overcast
11:12 PM 39.2 °F 29.6 °F 17.6 °F 42% 29.99 in 10.0 mi East 19.6 mph 29.9 mph N/A   Overcast
11:33 PM 39.2 °F 30.8 °F 17.6 °F 42% 29.98 in 10.0 mi East 15.0 mph 23.0 mph N/A   Overcast
11:53 PM 41.0 °F 31.6 °F 17.6 °F 39% 29.96 in 10.0 mi East 20.7 mph 31.1 mph N/A   Overcast